World > North America > United States > Massachusetts > Otter River  

Otter River, MA Hourly Weather Updates

Feedback E-mail the Weather

Quick Clicks

Otter River, MA Weather Maps

°F °C°F °C
Otter River Weather Map
UTC Time: 6/14/2024, 09:23
Your Time:

Otter River, MA Regional Weather

Expires:202406141000;;993527
ASUS41 KOKX 140910
RWROKX

Regional Weather Roundup
National Weather Service New York NY
500 AM EDT FRI JUN 14 2024

Note: "FAIR" indicates few or no clouds below 12,000 feet with no
significant weather and/or obstructions to visibility.


CTZ002-004>006-009-010-012-RIZ004-006-007-MAZ004-011-015-141000-
Southern New England

 In CT
  
CITY           SKY/WX    TMP DP  RH WIND       PRES   REMARKS
Bradley Intl   CLEAR     67  60  78 S9        29.88R                  
Hartford       CLEAR     67  61  81 S6        29.88R                  
Danbury        CLEAR     66  60  81 CALM      29.91R                  
Wtrbury/Oxford CLEAR     63  60  90 CALM      29.92R                  
Norwalk Harbor   N/A    N/A N/A N/A S10         N/A                   
Bridgeport     CLEAR     67  61  81 S9        29.90S                  
Meriden        CLEAR     66  59  78 S6        29.90R                  
New Haven      CLEAR     69  64  84 SW3       29.90S                  
Chester        CLEAR     66  63  88 S8G15     29.91F                  
Groton         CLEAR     66  62  87 SW10      29.91S                  
Willimantic    CLEAR     64  60  87 SE3       29.90S                  

 In RI
  
CITY           SKY/WX    TMP DP  RH WIND       PRES   REMARKS
Providence     CLEAR     64  59  83 S8        29.91S                  
Block Island   PTCLDY    63  61  93 SW14      29.94S                  
Westerly       CLEAR     64  61  90 S9        29.92S                  
 
In MA
  
CITY           SKY/WX    TMP DP  RH WIND       PRES   REMARKS
Boston         PTCLDY    67  59  75 S9        29.87S                  
Worcester      CLEAR     62  58  86 SW13      29.89S                  
Westfield      CLEAR     63  60  90 S7        29.86S                  
Provincetown   CLEAR     64  63  96 S13       29.92S                  
Nantucket      CLEAR     61  61 100 S13         N/A                   
$$


SKY/WX - Weather  TMP - Temperature  DP - Dew Point  RH - Humidity
WIND - Wind Direction/Speed PRES - Barometric Pressure VSB - Visibility
WCI - Wind Chill Index E13G22 Wind - East Wind 13 mph/Gusts of 22 mph

Trending Headlines

Trending Entertainment Headlines

Otter River Radar Loop

Use the map search tool if you want to place a location marker on the radar map...

Otter River Quick Facts

National Two Day Weather Forecast


E-mail the Otter River Weather Forecast

Voice your opinion or tell us about page issues...